Location: Goettingen
(51.5300°N, 9.9433°E)
Time: 22:56:55
(UTC+01:00)

ISS - Pass Details

Date: 10 November 2018
Orbit: 402 x 409 km, 51.6° (Epoch: 14 November)

Event Time Altitude Azimuth Distance (km) Brightness Sun altitude
Exits shadow 04:25:51 17° 98° (E) 1,126 -0.9 -28.5°
Drops below altitude 10° 04:26:41 10° 98° (E) 1,463 -0.1 -28.4°
Sets 04:28:46 0° 98° (E) 2,324 1.2 -28.1°
